SCP
-0 -0 0 0 -0 -0 -0 0 0 0 0 0 0 0 0 0 0 0 0 -0 -0 -0 -0 -0 0 0 0 0 0 0 0 0 0 0 0 0 0 -0 -0 -0 -0 -0 -0
-0 -0 0 0 0 0 -0 0 0 0 0 0 0 0 0 0 0 0 -0 -0 -0 -0 -0 -0 0 0 -0 0 0 0 0 0 0 -0 0 0 0 0 -0 -0 -0 -0 -0
0 -0 -0 0 0 0 0 0 0 -0 0 0 0 0 0 0 0 -0 0 -0 -0 -0 -0 -0 0 0 0 0 0 0 0 0 0 0 0 0 0 -0 -0 -0 -0 -0 -0
0 -0 -0 -0 0 0 0 0 0 0 0 0 0 0 0 -0 0 -0 -0 -0 -0 -0 -0 -0 -0 0 0 0 0 0 0 0 0 0 0 0 0 0 0 0 -0 -0 -0
0 -0 -0 0 0 0 0 0 0 0 0 0 0 0 0 -0 -0 -0 -0 -0 -0 -0 -0 -0 -0 0 -0 0 0 0 0 -0 0 0 0 0 0 -0 -0 0 -0 -0 -0
0 -0 0 -0 0 0 0 0 0 -0 0 0 0 0 -0 -0 -0 -0 -0 -0 -0 -0 0 0 0 0 -0 -0 -0 0 0 0 0 0 0 0 0 -0 -0 -0 0 -0 -0
0 -0 -0 -0 0 0 0 0 0 0 -0 -0 0 0 -0 -0 0 -0 -0 0 0 0 -0 0 0 0 -0 0 0 0 0 -0 0 0 0 0 0 -0 -0 -0 -0 -0 -0
0 0 -0 -0 -0 0 0 0 0 -0 -0 0 -0 -0 0 0 0 -0 -0 -0 -0 -0 -0 -0 0 -0 0 0 0 0 0 -0 0 0 0 0 0 0 -0 -0 -0 -0 0
0 0 -0 -0 0 0 0 0 0 -0 0 -0 -0 0 0 0 -0 -0 -0 -0 -0 -0 -0 -0 -0 -0 0 0 0 0 -0 -0 -0 0 0 0 0 -0 -0 -0 -0 -0 -0
0 0 0 -0 -0 -0 0 0 0 0 -0 0 0 0 -0 0 0 0 -0 -0 -0 -0 -0 -0 -0 0 -0 0 -0 -0 -0 -0 0 -0 0 -0 0 -0 -0 -0 -0 -0 -0
-0 -0 -0 -0 -0 -0 -0 0 0 0 0 0 0 0 -0 -0 -0 -0 0 -0 -0 -0 -0 -0 -0 -0 -0 -0 -0 -0 -0 0 0 -0 -0 -0 -0 -0 -0 -0 -0 -0 -0
-0 -0 -0 -0 -0 -0 -0 0 -0 -0 -0 -0 -0 -0 -0 -0 -0 -0 -0 -0 0 -0 -0 -0 -0 -0 -0 -0 0 -0 0 -0 0 0 -0 0 -0 -0 -0 -0 -0 -0 -0
-0 0 0 -0 -0 -0 -0 0 0 0 -0 -0 -0 -0 -0 -0 -0 -0 -0 0 0 -0 0 0 -0 0 -0 -0 0 -0 0 -0 0 0 -0 0 -0 -0 -0 -0 -0 -0 -0
-0 -0 -0 -0 -0 -0 0 -0 -0 -0 -0 -0 -0 0 -0 -0 -0 -0 0 0 0 0 0 0 -0 -0 -0 0 -0 -0 -0 0 0 0 0 0 0 -0 -0 -0 -0 -0 -0
-0 -0 -0 -0 -0 -0 -0 -0 -0 -0 -0 0 0 0 0 0 -0 0 -0 0 -0 0 0 0 0 -0 0 -0 -0 -0 -0 -0 -0 -0 0 -0 0 -0 -0 -0 -0 -0 -0
-0 -0 -0 -0 -0 -0 -0 0 -0 -0 0 0 0 0 0 0 0 0 0 -0 -0 -0 0 -0 -0 -0 0 -0 -0 -0 -0 -0 -0 -0 -0 -0 -0 0 0 0 -0 0 -0
-0 -0 0 0 -0 -0 -0 0 0 0 -0 -0 -0 -0 0 0 0 0 0 0 -0 -0 -0 -0 -0 -0 0 0 -0 -0 -0 -0 -0 -0 -0 -0 -0 -0 0 0 0 -0 -0
-0 -0 0 0 -0 -0 -0 0 0 0 -0 -0 -0 0 0 0 -0 0 0 0 -0 -0 -0 0 0 0 -0 0 -0 -0 -0 0 0 -0 -0 -0 -0 -0 0 0 0 0 0
-0 -0 0 0 0 0 -0 -0 0 0 0 -0 0 0 0 0 0 0 0 0 0 -0 -0 0 0 -0 -0 -0 -0 -0 -0 0 0 0 -0 -0 0 0 0 0 0 0 0
-0 -0 -0 0 0 0 0 0 0 0 0 0 -0 -0 -0 0 0 0 0 0 0 0 -0 0 0 0 0 0 0 0 0 -0 0 0 0 0 -0 0 0 0 -0 -0 0
-0 -0 -0 0 0 0 0 0 0 0 0 0 -0 -0 -0 0 0 0 0 0 0 0 -0 -0 0 0 0 0 0 0 -0 -0 -0 0 0 0 0 -0 -0 0 0 0 -0
-0 -0 -0 0 0 0 0 0 0 -0 0 0 -0 -0 0 0 0 0 0 0 0 0 -0 0 0 0 0 0 0 0 0 0 -0 0 -0 0 0 0 -0 -0 0 0 0
0 0 0 0 0 0 0 0 0 0 0 0 0 -0 -0 0 0 0 0 0 0 0 0 0 0 0 0 0 0 0 0 0 0 0 -0 -0 -0 -0 -0 -0 -0 -0 -0
-0 0 0 0 0 0 0 0 0 0 0 -0 0 0 0 0 0 0 0 0 0 0 0 0 0 0 0 0 0 0 0 0 0 0 0 -0 -0 -0 -0 -0 -0 -0 -0
0 -0 -0 0 -0 -0 0 0 0 0 0 -0 0 0 0 0 0 0 0 0 0 0 0 0 0 0 0 0 0 0 0 0 0 0 0 0 0 -0 -0 0 -0 -0 0
0 0 0 -0 0 -0 -0 -0 -0 -0 0 0 0 0 0 -0 0 0 0 0 0 0 0 0 0 0 0 0 0 0 0 0 0 0 0 0 0 0 0 0 -0 0 -0
Wind_Speed_500mb
44 42 40 37 34 30 29 32 33 32 32 30 27 27 26 24 24 23 26 24 25 30 29 31 37 36 42 41 40 39 40 40 42 42 41 41 39 41 43 45 47 46 45
51 47 41 36 32 29 28 28 30 29 29 28 25 24 25 26 26 28 28 28 28 29 31 32 37 38 42 40 40 40 37 38 40 40 39 39 37 38 41 42 43 43 42
51 48 42 36 32 29 26 25 26 26 24 25 24 23 23 26 28 28 30 32 32 34 32 37 37 37 40 37 39 35 34 34 33 38 37 38 36 37 39 39 39 38 38
51 47 40 34 30 27 25 22 23 25 25 24 24 23 25 26 29 29 29 33 34 33 33 33 34 35 34 35 35 32 31 31 30 33 33 36 37 36 37 35 34 34 34
48 43 36 31 26 25 24 21 21 24 24 26 27 24 25 27 31 30 29 32 31 32 31 30 31 31 33 37 32 30 29 30 29 28 28 31 34 33 35 34 32 31 31
44 38 33 27 22 20 19 18 20 23 25 27 27 26 25 29 35 32 30 31 28 30 28 28 30 30 32 35 33 29 25 24 22 24 28 28 28 28 29 32 31 29 29
42 36 31 25 21 17 16 16 18 23 26 27 26 26 25 32 36 34 31 30 29 29 27 32 34 34 32 26 25 24 25 23 22 23 23 29 27 23 24 26 29 29 27
39 35 30 24 20 17 15 13 15 24 29 28 28 27 26 36 35 32 30 28 28 29 29 31 30 28 24 21 21 19 20 21 21 21 23 22 23 21 22 23 24 24 27
39 35 30 25 21 19 16 17 16 33 33 31 30 28 30 36 33 29 27 27 25 25 26 28 25 23 20 18 16 19 21 21 19 18 17 16 19 15 19 22 19 20 22
38 33 28 26 24 24 22 23 29 34 31 29 28 27 29 29 28 27 26 23 22 23 22 25 23 21 16 12 17 18 18 16 15 15 14 15 14 13 15 22 20 15 18
40 35 31 26 25 27 26 29 29 29 27 26 26 24 22 19 19 23 23 20 19 21 22 24 24 19 13 11 11 16 15 13 12 12 11 12 15 14 14 16 16 12 13
44 38 33 30 28 27 28 29 28 26 25 20 22 22 19 18 19 23 20 17 17 18 21 20 20 18 13 9 8 10 9 10 9 10 11 11 13 12 15 19 16 13 13
43 40 36 33 31 28 28 28 23 22 23 21 18 21 13 13 15 16 18 18 15 13 15 16 13 15 15 10 10 6 11 12 8 9 9 11 15 10 13 17 18 17 14
46 42 40 38 37 31 30 28 25 22 19 13 9 10 7 7 11 10 13 17 16 14 12 11 13 14 12 14 11 8 10 7 7 7 10 9 8 9 13 14 18 17 15
48 46 43 38 37 30 28 22 22 19 19 16 14 9 8 4 10 5 11 13 15 14 10 8 12 16 15 14 16 13 15 9 9 12 13 12 8 9 9 12 14 14 13
48 48 43 37 33 28 22 17 18 14 10 11 9 8 4 4 9 5 12 13 14 11 9 13 13 20 17 21 24 20 16 12 13 15 15 12 10 7 9 12 13 14 16
46 47 46 34 30 25 20 17 14 13 6 3 0 4 1 3 7 14 10 17 17 15 11 6 14 15 25 19 33 35 26 18 12 11 16 16 13 11 11 13 13 13 12
51 48 42 35 30 24 19 15 12 9 2 3 3 1 2 2 2 10 11 15 18 17 13 7 8 12 16 16 17 20 27 23 17 12 16 17 14 16 13 13 13 16 17
42 47 42 37 30 21 19 17 14 9 6 2 2 2 3 3 6 9 12 14 17 15 17 12 7 6 5 20 13 19 21 26 23 18 18 17 16 16 16 16 19 20 19
44 44 38 33 29 23 24 18 21 19 16 12 6 3 1 3 7 9 11 14 14 16 18 20 14 8 10 16 17 18 23 22 28 22 19 16 21 19 19 20 21 26 20
49 42 37 35 29 29 28 24 24 25 25 25 10 6 4 3 4 5 8 13 14 17 20 19 22 19 12 14 15 15 20 20 21 23 27 24 21 19 21 21 21 28 29
50 44 42 40 36 33 26 20 21 24 25 25 18 13 14 16 12 10 9 10 15 16 22 23 25 25 24 19 15 14 18 27 29 21 23 25 24 21 18 19 23 26 28
58 54 48 46 43 39 31 29 25 22 29 30 25 20 21 18 18 16 13 13 13 13 12 18 19 22 28 29 23 20 11 14 14 23 26 26 26 26 22 22 24 25 24
71 62 50 49 46 43 40 33 36 26 26 25 26 30 24 19 20 21 21 20 17 16 17 17 22 22 22 28 27 29 35 13 8 6 17 23 22 27 26 28 28 24 24
72 73 59 56 52 42 45 38 34 31 25 24 28 35 31 24 24 21 23 32 27 23 20 23 22 18 20 26 31 29 29 34 21 18 14 10 19 31 34 34 31 32 32
65 68 64 65 59 50 50 46 43 33 29 28 29 37 33 30 26 26 27 22 24 29 24 27 24 24 22 24 24 34 36 32 36 34 32 26 26 27 29 31 33 32 29
Wind_Direction_500mb
155 144 139 134 134 133 132 133 136 136 133 132 131 132 129 122 115 113 116 119 122 124 124 117 119 114 124 119 114 113 110 105 102 103 104 105 109 112 114 116 116 118 120
150 145 143 139 135 134 137 140 139 137 135 130 129 129 128 129 121 113 113 116 123 126 123 124 122 122 125 122 119 113 112 111 102 97 97 104 109 112 115 118 117 118 119
151 146 146 144 138 138 141 147 149 146 144 137 134 134 137 130 128 117 116 115 114 119 122 122 125 127 129 124 121 121 117 109 108 108 106 105 108 111 116 116 118 120 120
152 147 149 147 143 142 142 150 157 157 156 149 144 139 142 140 136 125 121 120 114 114 115 125 130 124 123 121 117 115 113 117 119 111 110 111 110 113 113 114 118 119 120
152 148 151 150 146 143 144 152 161 159 158 156 151 142 145 145 143 135 128 125 128 127 125 127 128 126 128 124 126 118 113 116 113 115 112 110 110 110 115 118 120 122 123
151 151 151 150 146 146 149 160 167 160 158 157 151 145 149 148 147 140 132 133 132 135 130 134 134 136 137 129 118 112 105 114 108 111 117 116 114 114 117 123 122 124 124
156 154 153 151 150 157 149 162 166 163 157 154 149 144 146 150 148 143 137 135 136 137 141 139 134 130 130 132 131 122 112 104 102 104 114 120 121 123 126 127 126 124 126
156 155 154 150 157 149 146 148 162 171 158 150 144 143 141 148 148 144 141 139 140 143 146 146 141 141 143 141 140 131 116 106 108 113 117 119 126 124 130 131 132 133 127
155 156 157 153 149 142 143 120 116 149 149 144 142 140 140 145 146 146 142 141 143 149 151 155 149 146 143 141 143 145 128 113 104 125 124 132 133 136 148 142 136 141 141
157 155 157 152 145 144 137 123 121 132 135 143 139 136 136 142 144 140 137 136 140 152 154 162 160 157 150 137 137 143 135 116 106 130 135 141 136 114 147 137 139 143 152
162 157 156 152 145 145 139 126 128 129 132 135 137 130 131 143 143 136 140 146 145 155 161 168 173 175 172 164 154 152 141 127 116 131 133 143 147 138 126 131 153 148 157
163 158 157 154 146 146 142 134 133 129 124 124 129 138 145 157 157 145 155 155 161 166 171 173 181 189 196 204 167 153 149 140 139 142 141 139 144 148 143 154 157 157 144
160 158 157 152 146 141 134 132 123 124 128 133 142 147 153 156 145 153 156 158 164 158 181 190 188 202 217 211 186 170 157 140 120 137 153 157 159 156 160 169 167 168 163
164 158 156 153 147 138 137 123 110 116 124 113 118 175 161 165 168 179 185 174 177 172 161 194 212 210 210 217 212 215 188 203 169 160 159 159 169 161 162 159 173 175 179
168 162 159 156 156 152 144 135 115 109 111 105 88 87 166 183 182 240 216 209 200 187 182 201 223 223 233 227 221 204 206 220 229 196 169 156 174 196 198 168 177 187 181
174 169 162 159 159 157 151 147 130 125 124 102 93 76 105 187 221 311 243 212 220 209 225 226 229 244 241 244 226 206 232 248 211 201 186 167 178 204 201 179 194 189 198
183 177 179 175 167 160 152 152 144 142 137 134 283 57 174 191 234 239 259 221 219 230 208 241 246 253 250 259 229 237 237 214 213 211 203 179 194 213 200 201 210 209 204
185 187 187 189 180 174 172 171 170 166 178 238 156 262 260 272 300 243 225 213 220 238 225 228 235 229 261 224 198 191 204 206 216 233 223 214 201 223 223 218 222 223 208
185 183 184 188 192 188 182 190 187 208 226 315 360 175 220 333 306 239 225 219 234 241 242 226 210 215 206 175 182 197 217 226 213 229 230 218 227 224 235 238 240 239 223
194 196 194 193 197 207 206 213 223 229 245 258 260 262 134 17 334 237 227 225 243 252 237 229 233 195 168 196 221 216 211 210 223 232 231 239 240 233 240 244 251 219 227
198 197 202 200 206 212 220 232 237 240 250 250 260 231 269 306 324 295 263 252 255 260 254 241 225 227 221 213 223 233 222 225 222 223 232 234 236 234 238 242 239 229 240
197 201 207 211 210 214 223 245 253 250 247 236 247 244 264 266 275 290 286 268 260 258 249 249 245 234 234 237 226 223 227 232 236 235 226 232 232 232 236 244 244 243 243
206 214 222 221 216 219 230 235 235 247 243 232 243 244 265 275 270 266 276 276 265 263 248 235 240 243 236 240 246 225 211 218 226 237 228 232 234 237 239 243 248 249 247
218 221 231 225 222 231 231 235 231 246 249 246 239 240 266 280 272 273 276 285 277 262 252 240 249 257 241 232 237 241 237 240 206 259 237 229 231 237 235 234 241 245 249
218 221 225 228 225 231 218 225 229 246 259 251 253 255 260 269 282 288 272 287 267 268 264 251 240 233 230 230 230 240 234 249 240 250 258 248 258 254 247 242 245 247 242
222 220 223 228 230 223 223 230 236 250 260 255 258 260 261 268 277 285 288 319 252 261 265 260 257 248 239 242 245 241 240 247 243 251 264 268 287 272 253 245 245 250 258
Wind_Speed_850mb
44 42 40 37 34 30 29 32 33 32 32 30 27 27 26 24 24 23 26 24 25 30 29 31 37 36 42 41 40 39 40 40 42 42 41 41 39 41 43 45 47 46 45
51 47 41 36 32 29 28 28 30 29 29 28 25 24 25 26 26 28 28 28 28 29 31 32 37 38 42 40 40 40 37 38 40 40 39 39 37 38 41 42 43 43 42
51 48 42 36 32 29 26 25 26 26 24 25 24 23 23 26 28 28 30 32 32 34 32 37 37 37 40 37 39 35 34 34 33 38 37 38 36 37 39 39 39 38 38
51 47 40 34 30 27 25 22 23 25 25 24 24 23 25 26 29 29 29 33 34 33 33 33 34 35 34 35 35 32 31 31 30 33 33 36 37 36 37 35 34 34 34
48 43 36 31 26 25 24 21 21 24 24 26 27 24 25 27 31 30 29 32 31 32 31 30 31 31 33 37 32 30 29 30 29 28 28 31 34 33 35 34 32 31 31
44 38 33 27 22 20 19 18 20 23 25 27 27 26 25 29 35 32 30 31 28 30 28 28 30 30 32 35 33 29 25 24 22 24 28 28 28 28 29 32 31 29 29
42 36 31 25 21 17 16 16 18 23 26 27 26 26 25 32 36 34 31 30 29 29 27 32 34 34 32 26 25 24 25 23 22 23 23 29 27 23 24 26 29 29 27
39 35 30 24 20 17 15 13 15 24 29 28 28 27 26 36 35 32 30 28 28 29 29 31 30 28 24 21 21 19 20 21 21 21 23 22 23 21 22 23 24 24 27
39 35 30 25 21 19 16 17 16 33 33 31 30 28 30 36 33 29 27 27 25 25 26 28 25 23 20 18 16 19 21 21 19 18 17 16 19 15 19 22 19 20 22
38 33 28 26 24 24 22 23 29 34 31 29 28 27 29 29 28 27 26 23 22 23 22 25 23 21 16 12 17 18 18 16 15 15 14 15 14 13 15 22 20 15 18
40 35 31 26 25 27 26 29 29 29 27 26 26 24 22 19 19 23 23 20 19 21 22 24 24 19 13 11 11 16 15 13 12 12 11 12 15 14 14 16 16 12 13
44 38 33 30 28 27 28 29 28 26 25 20 22 22 19 18 19 23 20 17 17 18 21 20 20 18 13 9 8 10 9 10 9 10 11 11 13 12 15 19 16 13 13
43 40 36 33 31 28 28 28 23 22 23 21 18 21 13 13 15 16 18 18 15 13 15 16 13 15 15 10 10 6 11 12 8 9 9 11 15 10 13 17 18 17 14
46 42 40 38 37 31 30 28 25 22 19 13 9 10 7 7 11 10 13 17 16 14 12 11 13 14 12 14 11 8 10 7 7 7 10 9 8 9 13 14 18 17 15
48 46 43 38 37 30 28 22 22 19 19 16 14 9 8 4 10 5 11 13 15 14 10 8 12 16 15 14 16 13 15 9 9 12 13 12 8 9 9 12 14 14 13
48 48 43 37 33 28 22 17 18 14 10 11 9 8 4 4 9 5 12 13 14 11 9 13 13 20 17 21 24 20 16 12 13 15 15 12 10 7 9 12 13 14 16
46 47 46 34 30 25 20 17 14 13 6 3 0 4 1 3 7 14 10 17 17 15 11 6 14 15 25 19 33 35 26 18 12 11 16 16 13 11 11 13 13 13 12
51 48 42 35 30 24 19 15 12 9 2 3 3 1 2 2 2 10 11 15 18 17 13 7 8 12 16 16 17 20 27 23 17 12 16 17 14 16 13 13 13 16 17
42 47 42 37 30 21 19 17 14 9 6 2 2 2 3 3 6 9 12 14 17 15 17 12 7 6 5 20 13 19 21 26 23 18 18 17 16 16 16 16 19 20 19
44 44 38 33 29 23 24 18 21 19 16 12 6 3 1 3 7 9 11 14 14 16 18 20 14 8 10 16 17 18 23 22 28 22 19 16 21 19 19 20 21 26 20
49 42 37 35 29 29 28 24 24 25 25 25 10 6 4 3 4 5 8 13 14 17 20 19 22 19 12 14 15 15 20 20 21 23 27 24 21 19 21 21 21 28 29
50 44 42 40 36 33 26 20 21 24 25 25 18 13 14 16 12 10 9 10 15 16 22 23 25 25 24 19 15 14 18 27 29 21 23 25 24 21 18 19 23 26 28
58 54 48 46 43 39 31 29 25 22 29 30 25 20 21 18 18 16 13 13 13 13 12 18 19 22 28 29 23 20 11 14 14 23 26 26 26 26 22 22 24 25 24
71 62 50 49 46 43 40 33 36 26 26 25 26 30 24 19 20 21 21 20 17 16 17 17 22 22 22 28 27 29 35 13 8 6 17 23 22 27 26 28 28 24 24
72 73 59 56 52 42 45 38 34 31 25 24 28 35 31 24 24 21 23 32 27 23 20 23 22 18 20 26 31 29 29 34 21 18 14 10 19 31 34 34 31 32 32
65 68 64 65 59 50 50 46 43 33 29 28 29 37 33 30 26 26 27 22 24 29 24 27 24 24 22 24 24 34 36 32 36 34 32 26 26 27 29 31 33 32 29
Wind_Direction_850mb
155 144 139 134 134 133 132 133 136 136 133 132 131 132 129 122 115 113 116 119 122 124 124 117 119 114 124 119 114 113 110 105 102 103 104 105 109 112 114 116 116 118 120
150 145 143 139 135 134 137 140 139 137 135 130 129 129 128 129 121 113 113 116 123 126 123 124 122 122 125 122 119 113 112 111 102 97 97 104 109 112 115 118 117 118 119
151 146 146 144 138 138 141 147 149 146 144 137 134 134 137 130 128 117 116 115 114 119 122 122 125 127 129 124 121 121 117 109 108 108 106 105 108 111 116 116 118 120 120
152 147 149 147 143 142 142 150 157 157 156 149 144 139 142 140 136 125 121 120 114 114 115 125 130 124 123 121 117 115 113 117 119 111 110 111 110 113 113 114 118 119 120
152 148 151 150 146 143 144 152 161 159 158 156 151 142 145 145 143 135 128 125 128 127 125 127 128 126 128 124 126 118 113 116 113 115 112 110 110 110 115 118 120 122 123
151 151 151 150 146 146 149 160 167 160 158 157 151 145 149 148 147 140 132 133 132 135 130 134 134 136 137 129 118 112 105 114 108 111 117 116 114 114 117 123 122 124 124
156 154 153 151 150 157 149 162 166 163 157 154 149 144 146 150 148 143 137 135 136 137 141 139 134 130 130 132 131 122 112 104 102 104 114 120 121 123 126 127 126 124 126
156 155 154 150 157 149 146 148 162 171 158 150 144 143 141 148 148 144 141 139 140 143 146 146 141 141 143 141 140 131 116 106 108 113 117 119 126 124 130 131 132 133 127
155 156 157 153 149 142 143 120 116 149 149 144 142 140 140 145 146 146 142 141 143 149 151 155 149 146 143 141 143 145 128 113 104 125 124 132 133 136 148 142 136 141 141
157 155 157 152 145 144 137 123 121 132 135 143 139 136 136 142 144 140 137 136 140 152 154 162 160 157 150 137 137 143 135 116 106 130 135 141 136 114 147 137 139 143 152
162 157 156 152 145 145 139 126 128 129 132 135 137 130 131 143 143 136 140 146 145 155 161 168 173 175 172 164 154 152 141 127 116 131 133 143 147 138 126 131 153 148 157
163 158 157 154 146 146 142 134 133 129 124 124 129 138 145 157 157 145 155 155 161 166 171 173 181 189 196 204 167 153 149 140 139 142 141 139 144 148 143 154 157 157 144
160 158 157 152 146 141 134 132 123 124 128 133 142 147 153 156 145 153 156 158 164 158 181 190 188 202 217 211 186 170 157 140 120 137 153 157 159 156 160 169 167 168 163
164 158 156 153 147 138 137 123 110 116 124 113 118 175 161 165 168 179 185 174 177 172 161 194 212 210 210 217 212 215 188 203 169 160 159 159 169 161 162 159 173 175 179
168 162 159 156 156 152 144 135 115 109 111 105 88 87 166 183 182 240 216 209 200 187 182 201 223 223 233 227 221 204 206 220 229 196 169 156 174 196 198 168 177 187 181
174 169 162 159 159 157 151 147 130 125 124 102 93 76 105 187 221 311 243 212 220 209 225 226 229 244 241 244 226 206 232 248 211 201 186 167 178 204 201 179 194 189 198
183 177 179 175 167 160 152 152 144 142 137 134 283 57 174 191 234 239 259 221 219 230 208 241 246 253 250 259 229 237 237 214 213 211 203 179 194 213 200 201 210 209 204
185 187 187 189 180 174 172 171 170 166 178 238 156 262 260 272 300 243 225 213 220 238 225 228 235 229 261 224 198 191 204 206 216 233 223 214 201 223 223 218 222 223 208
185 183 184 188 192 188 182 190 187 208 226 315 360 175 220 333 306 239 225 219 234 241 242 226 210 215 206 175 182 197 217 226 213 229 230 218 227 224 235 238 240 239 223
194 196 194 193 197 207 206 213 223 229 245 258 260 262 134 17 334 237 227 225 243 252 237 229 233 195 168 196 221 216 211 210 223 232 231 239 240 233 240 244 251 219 227
198 197 202 200 206 212 220 232 237 240 250 250 260 231 269 306 324 295 263 252 255 260 254 241 225 227 221 213 223 233 222 225 222 223 232 234 236 234 238 242 239 229 240
197 201 207 211 210 214 223 245 253 250 247 236 247 244 264 266 275 290 286 268 260 258 249 249 245 234 234 237 226 223 227 232 236 235 226 232 232 232 236 244 244 243 243
206 214 222 221 216 219 230 235 235 247 243 232 243 244 265 275 270 266 276 276 265 263 248 235 240 243 236 240 246 225 211 218 226 237 228 232 234 237 239 243 248 249 247
218 221 231 225 222 231 231 235 231 246 249 246 239 240 266 280 272 273 276 285 277 262 252 240 249 257 241 232 237 241 237 240 206 259 237 229 231 237 235 234 241 245 249
218 221 225 228 225 231 218 225 229 246 259 251 253 255 260 269 282 288 272 287 267 268 264 251 240 233 230 230 230 240 234 249 240 250 258 248 258 254 247 242 245 247 242
222 220 223 228 230 223 223 230 236 250 260 255 258 260 261 268 277 285 288 319 252 261 265 260 257 248 239 242 245 241 240 247 243 251 264 268 287 272 253 245 245 250 258